Date String (YYYY-MM-DD hh:mm:ss) UTC,Instrument flags,Ambient pressure (hPa),Sample flow (lpm),Bypass flow (lpm),Sample temperature (°C),Ambient temperature (°C),ASC tube jacket temperature (°C),LED temperature (°C),Box temperature (°C),Sample RH (%),Span deviation,Mass concentration (μg/m³),Mass concentration (μg/m³),Mass concentration (μg/m³)
DateTimeUTC,F1_M11,P_M11,Q1_M11,Q2_M11,T1_M11,T2_M11,T3_M11,T4_M11,T5_M11,U1_M11,ZSPAN_M11,X0_M11,X2_M11,X1_M11
2022-05-29 12:00:00,,0813.6,5.00,0.00,29.0,27.9,00.0,37.9,30.9,14.8,0000.0,0004.25,0001.38,0000.60
2022-05-29 12:01:00,,0813.9,4.99,0.00,29.0,28.0,00.0,37.9,30.9,14.9,0000.0,0004.37,0001.42,0000.60
2022-05-29 12:02:00,,0814.1,5.00,0.00,29.0,28.0,00.0,37.9,30.9,15.3,0000.0,0004.76,0001.44,0000.60
2022-05-29 12:03:00,,0814.2,5.01,0.00,29.0,28.0,00.0,37.9,30.9,15.6,0000.0,0004.84,0001.46,0000.60
2022-05-29 12:04:00,,0814.0,5.00,0.00,29.0,28.0,00.0,37.9,30.9,14.8,0000.0,0004.82,0001.46,0000.60
2022-05-29 12:05:00,,0814.1,5.01,0.00,29.0,28.0,00.0,37.9,30.9,14.0,0000.0,0004.79,0001.45,0000.59
2022-05-29 12:06:00,,0813.6,5.00,0.00,29.0,28.0,00.0,37.9,30.9,14.1,0000.0,0004.92,0001.46,0000.58
2022-05-29 12:07:00,,0813.9,4.99,0.00,29.1,28.0,00.0,38.0,30.9,14.3,0000.0,0004.07,0001.41,0000.56
2022-05-29 12:08:00,,0813.6,5.00,0.00,29.1,28.0,00.0,38.0,30.9,14.5,0000.0,0003.87,0001.35,0000.54
2022-05-29 12:09:00,,0814.0,5.00,0.00,29.1,28.0,00.0,38.0,30.9,14.9,0000.0,0003.43,0001.28,0000.53
2022-05-29 12:10:00,,0814.1,5.01,0.00,29.1,28.0,00.0,38.0,30.9,15.0,0000.0,0003.56,0001.33,0000.55
2022-05-29 12:11:00,,0813.7,4.99,0.00,29.1,28.0,00.0,38.0,31.0,14.6,0000.0,0003.42,0001.29,0000.55
2022-05-29 12:12:00,,0813.8,5.01,0.00,29.1,28.1,00.0,38.0,31.0,14.5,0000.0,0003.17,0001.20,0000.54
2022-05-29 12:13:00,,0813.8,4.99,0.00,29.1,28.1,00.0,38.0,31.0,14.3,0000.0,0002.81,0001.19,0000.53
2022-05-29 12:14:00,,0813.8,4.99,0.00,29.1,28.1,00.0,38.0,31.0,13.8,0000.0,0002.68,0001.14,0000.51
2022-05-29 12:15:00,,0813.6,5.00,0.00,29.1,28.1,00.0,38.0,31.0,13.8,0000.0,0002.57,0001.10,0000.50
2022-05-29 12:16:00,,0813.8,5.00,0.00,29.1,28.1,00.0,38.0,31.0,13.8,0000.0,0002.51,0001.08,0000.49
2022-05-29 12:17:00,,0813.6,5.01,0.00,29.1,28.1,00.0,38.0,31.0,14.2,0000.0,0002.41,0001.08,0000.49
2022-05-29 12:18:00,,0813.5,4.99,0.00,29.1,28.1,00.0,38.0,31.0,14.1,0000.0,0002.31,0001.06,0000.50
2022-05-29 12:19:00,,0813.5,5.00,0.00,29.1,28.1,00.0,38.0,31.0,14.0,0000.0,0002.27,0001.04,0000.47
2022-05-29 12:20:00,,0813.5,5.00,0.00,29.1,28.1,00.0,38.0,31.0,14.0,0000.0,0002.21,0001.00,0000.44
2022-05-29 12:21:00,,0813.6,5.00,0.00,29.1,28.1,00.0,38.0,31.0,13.8,0000.0,0001.67,0000.85,0000.38
2022-05-29 12:22:00,,0813.7,5.00,0.00,29.1,28.1,00.0,38.0,31.0,13.7,0000.0,0001.54,0000.79,0000.34
2022-05-29 12:23:00,,0813.6,5.00,0.00,29.1,28.1,00.0,38.0,31.0,13.8,0000.0,0001.44,0000.74,0000.31
2022-05-29 12:24:00,,0813.8,5.00,0.00,29.2,28.1,00.0,38.0,31.0,14.1,0000.0,0001.19,0000.62,0000.28
2022-05-29 12:25:00,,0813.7,4.99,0.00,29.2,28.2,00.0,38.1,31.0,13.9,0000.0,0001.17,0000.60,0000.26
2022-05-29 12:26:00,,0813.6,5.00,0.00,29.2,28.2,00.0,38.1,31.0,13.8,0000.0,0001.17,0000.61,0000.27
2022-05-29 12:27:00,,0814.1,5.00,0.00,29.2,28.2,00.0,38.1,31.0,13.7,0000.0,0001.22,0000.60,0000.27
2022-05-29 12:28:00,,0814.1,5.01,0.00,29.2,28.2,00.0,38.1,31.0,13.7,0000.0,0001.18,0000.58,0000.26
2022-05-29 12:29:00,,0814.1,5.00,0.00,29.2,28.2,00.0,38.1,31.1,13.7,0000.0,0001.54,0000.62,0000.25
2022-05-29 12:30:00,,0813.9,5.00,0.00,29.2,28.2,00.0,38.1,31.1,14.0,0000.0,0001.73,0000.64,0000.26
2022-05-29 12:31:00,,0813.6,5.00,0.00,29.2,28.2,00.0,38.1,31.1,14.2,0000.0,0001.64,0000.61,0000.26
2022-05-29 12:32:00,,0814.1,5.00,0.00,29.2,28.2,00.0,38.1,31.1,13.9,0000.0,0001.76,0000.64,0000.26
2022-05-29 12:33:00,,0813.9,4.99,0.00,29.2,28.2,00.0,38.1,31.1,13.8,0000.0,0001.96,0000.69,0000.27
2022-05-29 12:34:00,,0813.7,5.00,0.00,29.2,28.2,00.0,38.1,31.1,13.9,0000.0,0001.97,0000.70,0000.27
2022-05-29 12:35:00,,0813.8,4.99,0.00,29.2,28.2,00.0,38.1,31.1,13.9,0000.0,0002.00,0000.73,0000.29
2022-05-29 12:36:00,,0813.9,4.99,0.00,29.2,28.2,00.0,38.1,31.1,13.7,0000.0,0002.09,0000.77,0000.30
2022-05-29 12:37:00,,0814.0,5.01,0.00,29.2,28.2,00.0,38.1,31.1,13.8,0000.0,0002.08,0000.77,0000.30
2022-05-29 12:38:00,,0813.8,5.01,0.00,29.2,28.2,00.0,38.1,31.1,14.3,0000.0,0002.07,0000.79,0000.30
2022-05-29 12:39:00,,0813.8,5.00,0.00,29.2,28.2,00.0,38.1,31.0,14.7,0000.0,0002.06,0000.78,0000.29
2022-05-29 12:40:00,,0813.9,5.01,0.00,29.2,28.2,00.0,38.1,31.0,14.9,0000.0,0001.68,0000.74,0000.29
2022-05-29 12:41:00,,0813.8,5.00,0.00,29.2,28.2,00.0,38.1,31.1,14.6,0000.0,0001.48,0000.69,0000.29
2022-05-29 12:42:00,,0814.1,5.00,0.00,29.2,28.2,00.0,38.1,31.1,14.7,0000.0,0001.52,0000.71,0000.30
2022-05-29 12:43:00,,0813.9,4.99,0.00,29.2,28.2,00.0,38.1,31.1,14.7,0000.0,0001.38,0000.66,0000.29
2022-05-29 12:44:00,,0814.0,5.00,0.00,29.2,28.2,00.0,38.2,31.1,14.8,0000.0,0001.21,0000.61,0000.29
2022-05-29 12:45:00,,0814.0,5.00,0.00,29.2,28.2,00.0,38.2,31.1,14.6,0000.0,0001.28,0000.64,0000.29
2022-05-29 12:46:00,,0814.0,5.00,0.00,29.2,28.2,00.0,38.2,31.1,14.3,0000.0,0001.33,0000.65,0000.29
2022-05-29 12:47:00,,0814.0,5.00,0.00,29.3,28.2,00.0,38.2,31.1,14.2,0000.0,0001.33,0000.66,0000.29
2022-05-29 12:48:00,,0813.9,5.00,0.00,29.3,28.2,00.0,38.2,31.1,13.9,0000.0,0001.45,0000.70,0000.29
2022-05-29 12:49:00,,0814.0,5.01,0.00,29.3,28.3,00.0,38.2,31.1,13.7,0000.0,0001.51,0000.72,0000.30
2022-05-29 12:50:00,,0814.0,4.99,0.00,29.3,28.3,00.0,38.2,31.1,13.6,0000.0,0001.52,0000.73,0000.32
2022-05-29 12:51:00,,0814.0,4.99,0.00,29.3,28.3,00.0,38.2,31.1,13.6,0000.0,0001.55,0000.75,0000.34
2022-05-29 12:52:00,,0814.0,5.00,0.00,29.3,28.3,00.0,38.2,31.1,13.5,0000.0,0001.63,0000.81,0000.37
2022-05-29 12:53:00,,0814.1,5.00,0.00,29.3,28.3,00.0,38.2,31.1,13.4,0000.0,0001.84,0000.92,0000.42
2022-05-29 12:54:00,,0814.1,4.99,0.00,29.3,28.3,00.0,38.2,31.1,13.4,0000.0,0002.01,0001.03,0000.46
2022-05-29 12:55:00,,0814.1,4.98,0.00,29.3,28.3,00.0,38.2,31.2,13.5,0000.0,0002.08,0001.07,0000.49
2022-05-29 12:56:00,,0814.1,4.99,0.00,29.3,28.3,00.0,38.2,31.2,13.7,0000.0,0002.17,0001.12,0000.53
2022-05-29 12:57:00,,0814.0,5.00,0.00,29.3,28.3,00.0,38.2,31.2,13.6,0000.0,0002.35,0001.18,0000.55
2022-05-29 12:58:00,,0814.0,5.01,0.00,29.3,28.3,00.0,38.2,31.2,13.6,0000.0,0002.42,0001.20,0000.58
2022-05-29 12:59:00,,0814.1,4.99,0.00,29.3,28.3,00.0,38.2,31.2,13.7,0000.0,0002.43,0001.20,0000.60
